Preview of NWS' New Version of Forecast
This preview is not operational and should not be used for support decisions.

Regional Weather Roundup (RWR)

Issued by National Weather Service (NWS)

                            
000
ASUS44 KMEG 220300
RWRTN 
TENNESSEE HOURLY STATE WEATHER ROUNDUP
NATIONAL WEATHER SERVICE MEMPHIS TN
1000 PM CDT SAT SEP 21 2019

TNZ002-004-019-021-049-052-054-088>092-220400-
WEST TENNESSEE
  
CITY           SKY/WX    TMP DP  RH WIND       PRES   REMARKS
MEMPHIS INTL   FAIR      79  60  52 S10       30.12S                  
NWS MEMPHIS      N/A     75 N/A N/A MISG        N/A                   
JACKSON        FAIR      67  61  81 CALM      30.15S                  
DYERSBURG      FAIR      75  61  61 SE5       30.14S                  
$$

TNZ008-025-027-028-033-062-065-066-220400-
NORTH MIDDLE TENNESSEE
  
CITY           SKY/WX    TMP DP  RH WIND       PRES   REMARKS
NASHVILLE      FAIR      74  55  51 S5        30.17S                  
CLARKSVILLE    FAIR      71  60  68 CALM      30.15S                  
SMYRNA         FAIR      68  59  73 SE5       30.18S                  
CROSSVILLE     FAIR      64  56  75 CALM      30.27S                  
$$

TNZ061-075-076-078-094-096-097-220400-
SOUTH MIDDLE TENNESSEE
  
CITY           SKY/WX    TMP DP  RH WIND       PRES   REMARKS
$$

TNZ017-018-042-046-047-220400-
NORTHEAST TENNESSEE
  
CITY           SKY/WX    TMP DP  RH WIND       PRES   REMARKS
TRI CITIES     FAIR      66  60  81 CALM      30.26R                  
$$

TNZ012-013-036-069-073-074-220400-
CENTRAL EAST TENNESSEE
  
CITY           SKY/WX    TMP DP  RH WIND       PRES   REMARKS
KNOXVILLE      FAIR      73  61  65 SW6       30.22R                  
OAK RIDGE      FAIR      70  61  73 CALM      30.23S                  
$$

TNZ083-085-099-220400-
SOUTHEAST TENNESSEE
  
CITY           SKY/WX    TMP DP  RH WIND       PRES   REMARKS
CHATTANOOGA    FAIR      74  59  59 CALM      30.22R                  
$$

SKY/WX REPORTED AS FAIR MEANS FEW OR NO CLOUDS BELOW
12 THOUSAND FEET.